Time,TemperatureF,DewpointF,PressureIn,WindDirection,WindDirectionDegrees,WindSpeedMPH,WindSpeedGustMPH,Humidity,HourlyPrecipIn,Conditions,Clouds,dailyrainin,SoftwareType,DateUTC
2013-09-27 00:05:00,49.6,44.0,29.99,NE,43,6.0,-999.0,82,-99.99,,,0.00,weatherlink.com 1.10,2013-09-27 07:05:00,
2013-09-27 00:20:00,49.3,45.0,29.99,NE,47,0.0,-999.0,84,-99.99,,,0.00,weatherlink.com 1.10,2013-09-27 07:20:00,
2013-09-27 00:35:00,49.2,45.0,29.99,NNE,31,2.0,-999.0,84,-99.99,,,0.00,weatherlink.com 1.10,2013-09-27 07:35:00,
2013-09-27 00:50:00,48.4,44.0,29.99,NNE,30,2.0,-999.0,84,-99.99,,,0.00,weatherlink.com 1.10,2013-09-27 07:50:00,
2013-09-27 01:05:00,47.8,44.0,29.99,NNE,28,0.0,-999.0,85,-99.99,,,0.00,weatherlink.com 1.10,2013-09-27 08:05:00,
2013-09-27 01:19:00,47.2,43.0,29.99,NE,48,3.0,-999.0,85,-99.99,,,0.00,weatherlink.com 1.10,2013-09-27 08:19:00,
2013-09-27 01:34:00,46.9,43.0,30.00,NE,48,0.0,-999.0,87,-99.99,,,0.00,weatherlink.com 1.10,2013-09-27 08:34:00,
2013-09-27 01:49:00,47.6,44.0,30.00,NE,43,6.0,-999.0,88,-99.99,,,0.00,weatherlink.com 1.10,2013-09-27 08:49:00,
2013-09-27 02:04:00,47.4,44.0,30.00,NE,44,2.0,-999.0,87,-99.99,,,0.00,weatherlink.com 1.10,2013-09-27 09:04:00,
2013-09-27 02:19:00,47.0,43.0,30.01,NE,34,0.0,-999.0,87,-99.99,,,0.00,weatherlink.com 1.10,2013-09-27 09:19:00,
2013-09-27 02:35:00,46.4,43.0,30.00,NE,36,2.0,-999.0,86,-99.99,,,0.00,weatherlink.com 1.10,2013-09-27 09:35:00,
2013-09-27 02:50:00,46.0,43.0,30.00,NE,43,0.0,-999.0,88,-99.99,,,0.00,weatherlink.com 1.10,2013-09-27 09:50:00,
2013-09-27 03:04:00,46.5,44.0,30.00,NE,43,3.0,-999.0,89,-99.99,,,0.00,weatherlink.com 1.10,2013-09-27 10:04:00,
2013-09-27 03:20:00,46.1,43.0,30.00,NE,53,3.0,-999.0,88,-99.99,,,0.00,weatherlink.com 1.10,2013-09-27 10:20:00,
2013-09-27 03:35:00,45.7,42.0,30.00,NE,53,2.0,-999.0,88,-99.99,,,0.00,weatherlink.com 1.10,2013-09-27 10:35:00,
2013-09-27 03:50:00,45.6,43.0,30.00,NE,51,2.0,-999.0,89,-99.99,,,0.00,weatherlink.com 1.10,2013-09-27 10:50:00,
2013-09-27 04:05:00,45.4,42.0,30.00,NE,47,3.0,-999.0,89,-99.99,,,0.00,weatherlink.com 1.10,2013-09-27 11:05:00,
2013-09-27 04:20:00,45.1,42.0,30.00,NE,46,0.0,-999.0,89,-99.99,,,0.00,weatherlink.com 1.10,2013-09-27 11:20:00,
2013-09-27 04:34:00,45.7,43.0,30.00,ENE,67,4.0,-999.0,89,-99.99,,,0.00,weatherlink.com 1.10,2013-09-27 11:34:00,
2013-09-27 04:50:00,45.6,43.0,30.00,ENE,60,0.0,-999.0,89,-99.99,,,0.00,weatherlink.com 1.10,2013-09-27 11:50:00,
2013-09-27 05:04:00,45.2,42.0,30.00,ENE,60,1.0,-999.0,89,-99.99,,,0.00,weatherlink.com 1.10,2013-09-27 12:04:00,
2013-09-27 05:20:00,44.7,42.0,30.00,ENE,60,4.0,-999.0,89,-99.99,,,0.00,weatherlink.com 1.10,2013-09-27 12:20:00,
2013-09-27 05:35:00,44.5,42.0,30.00,ENE,60,2.0,-999.0,89,-99.99,,,0.00,weatherlink.com 1.10,2013-09-27 12:35:00,
2013-09-27 05:49:00,44.1,41.0,30.01,ENE,58,3.0,-999.0,89,-99.99,,,0.00,weatherlink.com 1.10,2013-09-27 12:49:00,
2013-09-27 06:05:00,43.9,41.0,30.02,ENE,58,2.0,-999.0,89,-99.99,,,0.00,weatherlink.com 1.10,2013-09-27 13:05:00,
2013-09-27 06:20:00,44.8,42.0,30.02,ENE,58,3.0,-999.0,89,-99.99,,,0.00,weatherlink.com 1.10,2013-09-27 13:20:00,
2013-09-27 06:35:00,44.3,41.0,30.02,NE,55,0.0,-999.0,88,-99.99,,,0.00,weatherlink.com 1.10,2013-09-27 13:35:00,
2013-09-27 06:49:00,44.1,41.0,30.02,NE,55,0.0,-999.0,88,-99.99,,,0.00,weatherlink.com 1.10,2013-09-27 13:49:00,
2013-09-27 07:05:00,43.7,40.0,30.02,NE,55,3.0,-999.0,88,-99.99,,,0.00,weatherlink.com 1.10,2013-09-27 14:05:00,
2013-09-27 07:20:00,43.5,41.0,30.03,NE,55,0.0,-999.0,89,-99.99,,,0.00,weatherlink.com 1.10,2013-09-27 14:20:00,
2013-09-27 07:35:00,43.6,41.0,30.03,NE,55,0.0,-999.0,89,-99.99,,,0.00,weatherlink.com 1.10,2013-09-27 14:35:00,
2013-09-27 07:51:00,43.8,41.0,30.03,NE,55,0.0,-999.0,89,-99.99,,,0.00,weatherlink.com 1.10,2013-09-27 14:51:00,
2013-09-27 08:05:00,44.0,41.0,30.04,NE,55,0.0,-999.0,89,-99.99,,,0.00,weatherlink.com 1.10,2013-09-27 15:05:00,
2013-09-27 08:20:00,45.1,43.0,30.04,NNE,24,1.0,-999.0,91,-99.99,,,0.00,weatherlink.com 1.10,2013-09-27 15:20:00,
2013-09-27 08:35:00,47.2,45.0,30.05,NNE,24,0.0,-999.0,92,-99.99,,,0.00,weatherlink.com 1.10,2013-09-27 15:35:00,
2013-09-27 08:50:00,50.6,48.0,30.04,NNE,26,0.0,-999.0,89,-99.99,,,0.00,weatherlink.com 1.10,2013-09-27 15:50:00,
2013-09-27 09:05:00,54.2,49.0,30.05,West,266,1.0,-999.0,81,-99.99,,,0.00,weatherlink.com 1.10,2013-09-27 16:05:00,
2013-09-27 09:20:00,56.6,49.0,30.05,SW,222,0.0,-999.0,76,-99.99,,,0.00,weatherlink.com 1.10,2013-09-27 16:20:00,
2013-09-27 09:36:00,58.7,49.0,30.05,West,260,1.0,-999.0,70,-99.99,,,0.00,weatherlink.com 1.10,2013-09-27 16:36:00,
2013-09-27 09:51:00,56.0,47.0,30.05,West,260,0.0,-999.0,73,-99.99,,,0.00,weatherlink.com 1.10,2013-09-27 16:51:00,
2013-09-27 10:05:00,58.9,49.0,30.05,WSW,258,1.0,-999.0,71,-99.99,,,0.00,weatherlink.com 1.10,2013-09-27 17:05:00,
2013-09-27 10:19:00,56.5,46.0,30.06,West,271,1.0,-999.0,68,-99.99,,,0.00,weatherlink.com 1.10,2013-09-27 17:19:00,
2013-09-27 10:34:00,58.5,47.0,30.05,West,263,3.0,-999.0,67,-99.99,,,0.00,weatherlink.com 1.10,2013-09-27 17:34:00,
2013-09-27 10:50:00,58.6,46.0,30.05,West,259,5.0,-999.0,64,-99.99,,,0.00,weatherlink.com 1.10,2013-09-27 17:50:00,
2013-09-27 11:05:00,56.3,48.0,30.06,NW,313,6.0,-999.0,74,-99.99,,,0.00,weatherlink.com 1.10,2013-09-27 18:05:00,
2013-09-27 11:20:00,58.7,49.0,30.06,NNW,340,9.0,-999.0,70,-99.99,,,0.00,weatherlink.com 1.10,2013-09-27 18:20:00,
2013-09-27 11:36:00,60.5,48.0,30.06,NW,306,17.0,-999.0,64,-99.99,,,0.00,weatherlink.com 1.10,2013-09-27 18:36:00,
2013-09-27 11:49:00,61.4,48.0,30.06,NNW,333,5.0,-999.0,61,-99.99,,,0.00,weatherlink.com 1.10,2013-09-27 18:49:00,
2013-09-27 12:05:00,64.2,48.0,30.06,NW,321,11.0,-999.0,56,-99.99,,,0.00,weatherlink.com 1.10,2013-09-27 19:05:00,
2013-09-27 12:20:00,63.4,49.0,30.06,North,355,7.0,-999.0,60,-99.99,,,0.00,weatherlink.com 1.10,2013-09-27 19:20:00,
2013-09-27 12:35:00,64.8,48.0,30.06,NW,306,8.0,-999.0,55,-99.99,,,0.00,weatherlink.com 1.10,2013-09-27 19:35:00,
2013-09-27 12:50:00,63.7,49.0,30.07,North,5,5.0,-999.0,59,-99.99,,,0.00,weatherlink.com 1.10,2013-09-27 19:50:00,
2013-09-27 13:04:00,61.6,49.0,30.07,NNW,333,4.0,-999.0,64,-99.99,,,0.00,weatherlink.com 1.10,2013-09-27 20:04:00,
2013-09-27 13:20:00,62.7,50.0,30.07,NW,306,11.0,-999.0,63,-99.99,,,0.00,weatherlink.com 1.10,2013-09-27 20:20:00,
2013-09-27 13:35:00,62.0,51.0,30.06,NW,311,8.0,-999.0,68,-99.99,,,0.00,weatherlink.com 1.10,2013-09-27 20:35:00,
2013-09-27 13:50:00,63.2,52.0,30.06,North,355,5.0,-999.0,67,-99.99,,,0.00,weatherlink.com 1.10,2013-09-27 20:50:00,
2013-09-27 14:05:00,62.6,52.0,30.05,NNW,340,11.0,-999.0,68,-99.99,,,0.00,weatherlink.com 1.10,2013-09-27 21:05:00,
2013-09-27 14:19:00,62.8,52.0,30.05,NNW,345,7.0,-999.0,69,-99.99,,,0.00,weatherlink.com 1.10,2013-09-27 21:19:00,
2013-09-27 14:34:00,65.9,51.0,30.04,NNW,330,7.0,-999.0,59,-99.99,,,0.00,weatherlink.com 1.10,2013-09-27 21:34:00,
2013-09-27 14:49:00,65.0,51.0,30.03,NNE,15,4.0,-999.0,60,-99.99,,,0.00,weatherlink.com 1.10,2013-09-27 21:49:00,
2013-09-27 15:04:00,65.5,52.0,30.02,North,355,4.0,-999.0,61,-99.99,,,0.00,weatherlink.com 1.10,2013-09-27 22:04:00,
2013-09-27 15:20:00,66.2,51.0,30.02,NNE,17,9.0,-999.0,58,-99.99,,,0.00,weatherlink.com 1.10,2013-09-27 22:20:00,
2013-09-27 15:35:00,64.1,52.0,30.02,NNE,18,7.0,-999.0,64,-99.99,,,0.00,weatherlink.com 1.10,2013-09-27 22:35:00,
2013-09-27 15:49:00,63.6,50.0,30.02,NW,325,10.0,-999.0,62,-99.99,,,0.00,weatherlink.com 1.10,2013-09-27 22:49:00,
2013-09-27 16:05:00,62.7,51.0,30.02,NNW,336,8.0,-999.0,65,-99.99,,,0.00,weatherlink.com 1.10,2013-09-27 23:05:00,
2013-09-27 16:20:00,62.0,51.0,30.03,NNE,32,14.0,-999.0,68,-99.99,,,0.00,weatherlink.com 1.10,2013-09-27 23:20:00,
2013-09-27 16:35:00,61.7,51.0,30.03,NW,325,13.0,-999.0,68,-99.99,,,0.00,weatherlink.com 1.10,2013-09-27 23:35:00,
2013-09-27 16:49:00,62.0,52.0,30.02,North,360,7.0,-999.0,69,-99.99,,,0.00,weatherlink.com 1.10,2013-09-27 23:49:00,
2013-09-27 17:04:00,61.7,51.0,30.03,NNW,338,8.0,-999.0,68,-99.99,,,0.00,weatherlink.com 1.10,2013-09-28 00:04:00,
2013-09-27 17:19:00,61.3,51.0,30.03,North,360,8.0,-999.0,68,-99.99,,,0.00,weatherlink.com 1.10,2013-09-28 00:19:00,
2013-09-27 17:34:00,60.7,50.0,30.02,NW,312,15.0,-999.0,69,-99.99,,,0.00,weatherlink.com 1.10,2013-09-28 00:34:00,
2013-09-27 17:50:00,60.3,50.0,30.02,NNE,32,2.0,-999.0,68,-99.99,,,0.00,weatherlink.com 1.10,2013-09-28 00:50:00,
2013-09-27 18:04:00,59.6,49.0,30.02,North,5,8.0,-999.0,68,-99.99,,,0.00,weatherlink.com 1.10,2013-09-28 01:04:00,
2013-09-27 18:19:00,58.1,48.0,30.02,NNW,331,10.0,-999.0,69,-99.99,,,0.00,weatherlink.com 1.10,2013-09-28 01:19:00,
2013-09-27 18:34:00,57.4,48.0,30.02,NNE,13,6.0,-999.0,71,-99.99,,,0.00,weatherlink.com 1.10,2013-09-28 01:34:00,
2013-09-27 18:50:00,56.8,48.0,30.01,NNW,327,8.0,-999.0,73,-99.99,,,0.00,weatherlink.com 1.10,2013-09-28 01:50:00,
2013-09-27 19:05:00,55.9,48.0,30.02,NE,36,8.0,-999.0,74,-99.99,,,0.00,weatherlink.com 1.10,2013-09-28 02:05:00,
2013-09-27 19:20:00,55.4,48.0,30.02,North,355,5.0,-999.0,75,-99.99,,,0.00,weatherlink.com 1.10,2013-09-28 02:20:00,
2013-09-27 19:34:00,54.8,47.0,30.03,NNW,348,4.0,-999.0,75,-99.99,,,0.00,weatherlink.com 1.10,2013-09-28 02:34:00,
2013-09-27 19:51:00,54.0,47.0,30.02,North,5,2.0,-999.0,76,-99.99,,,0.00,weatherlink.com 1.10,2013-09-28 02:51:00,
2013-09-27 20:05:00,53.5,46.0,30.02,NNE,19,1.0,-999.0,77,-99.99,,,0.00,weatherlink.com 1.10,2013-09-28 03:05:00,
2013-09-27 20:20:00,53.6,47.0,30.02,North,5,7.0,-999.0,77,-99.99,,,0.00,weatherlink.com 1.10,2013-09-28 03:20:00,
2013-09-27 20:35:00,53.6,46.0,30.02,North,355,2.0,-999.0,76,-99.99,,,0.00,weatherlink.com 1.10,2013-09-28 03:35:00,
2013-09-27 20:50:00,53.3,46.0,30.02,NE,36,4.0,-999.0,77,-99.99,,,0.00,weatherlink.com 1.10,2013-09-28 03:50:00,
2013-09-27 21:04:00,53.0,46.0,30.03,NE,35,3.0,-999.0,77,-99.99,,,0.00,weatherlink.com 1.10,2013-09-28 04:04:00,
2013-09-27 21:20:00,52.8,46.0,30.03,NNE,20,2.0,-999.0,77,-99.99,,,0.00,weatherlink.com 1.10,2013-09-28 04:20:00,
2013-09-27 21:35:00,52.7,46.0,30.02,NNE,16,0.0,-999.0,78,-99.99,,,0.00,weatherlink.com 1.10,2013-09-28 04:35:00,
2013-09-27 21:49:00,52.3,46.0,30.02,North,355,4.0,-999.0,78,-99.99,,,0.00,weatherlink.com 1.10,2013-09-28 04:49:00,
2013-09-27 22:05:00,52.1,45.0,30.02,NE,36,2.0,-999.0,77,-99.99,,,0.00,weatherlink.com 1.10,2013-09-28 05:05:00,
2013-09-27 22:20:00,50.8,44.0,30.02,NE,41,3.0,-999.0,78,-99.99,,,0.00,weatherlink.com 1.10,2013-09-28 05:20:00,
2013-09-27 22:35:00,49.6,43.0,30.02,NNW,335,2.0,-999.0,79,-99.99,,,0.00,weatherlink.com 1.10,2013-09-28 05:35:00,
2013-09-27 22:50:00,48.9,43.0,30.02,NE,37,3.0,-999.0,80,-99.99,,,0.00,weatherlink.com 1.10,2013-09-28 05:50:00,
2013-09-27 23:05:00,48.3,43.0,30.01,NNE,24,0.0,-999.0,81,-99.99,,,0.00,weatherlink.com 1.10,2013-09-28 06:05:00,
2013-09-27 23:20:00,47.7,43.0,30.02,NE,42,3.0,-999.0,82,-99.99,,,0.00,weatherlink.com 1.10,2013-09-28 06:20:00,
2013-09-27 23:34:00,47.3,42.0,30.01,NE,42,0.0,-999.0,83,-99.99,,,0.00,weatherlink.com 1.10,2013-09-28 06:34:00,
2013-09-27 23:50:00,47.0,42.0,30.01,NE,42,0.0,-999.0,84,-99.99,,,0.00,weatherlink.com 1.10,2013-09-28 06:50:00,